Location: Unspecified
(0.0000°N, 0.0000°E)
Time: 01:11:19
(UTC+00:00)

Vanguard 1 - All Passes

Search period start: 26 May 2019 00:00
Search period end: 05 June 2019 00:00
Orbit: 653 x 3830 km, 34.2° (Epoch: 25 May)

Date Brightness Start Highest point End Pass type
(mag) Time Alt. Az. Time Alt. Az. Time Alt. Az.
26 May - 00:48:51 10° SW 00:59:55 16° S 01:08:56 10° SSE visible
26 May - 03:21:01 10° SSW 03:30:19 19° SSE 03:36:51 10° SE visible
26 May - 05:45:07 10° SW 05:54:51 52° SSE 06:00:27 10° ENE daylight
26 May - 08:10:43 10° W 08:15:02 20° NW 08:18:32 10° N daylight
26 May - 15:21:15 10° N 15:28:39 21° NE 15:39:20 10° E daylight
26 May - 17:38:45 10° NW 17:51:57 72° NE 18:14:13 10° ESE daylight
26 May - 20:01:20 10° WNW 20:18:42 52° SSW 20:41:29 10° SE visible
26 May - 22:32:52 10° WSW 22:49:51 25° SSW 23:05:55 10° SSE visible
27 May - 01:12:58 10° SSW 01:23:33 16° S 01:31:56 10° SSE visible
27 May - 03:41:59 10° SSW 03:52:42 24° SSE 03:59:37 10° ESE visible
27 May - 06:06:25 10° SW 06:16:06 81° SE 06:21:37 10° ENE daylight
27 May - 08:35:10 10° NW 08:35:59 10° NW 08:36:46 10° NNW daylight
27 May - 15:41:06 10° NNW 15:49:54 29° NE 16:03:54 10° E daylight
27 May - 17:59:42 10° NW 18:13:21 88° NE 18:36:17 10° SE visible
27 May - 20:23:42 10° W 20:41:04 43° SSW 21:02:44 10° SE visible
27 May - 22:57:48 10° WSW 23:13:26 21° SSW 23:27:37 10° SSE visible
28 May - 01:35:52 10° SSW 01:46:58 17° S 01:55:23 10° SE visible
28 May - 04:02:59 10° SW 04:14:48 32° SSE 04:21:51 10° E visible
28 May - 06:28:03 10° WSW 06:37:07 64° NW 06:42:25 10° NE daylight
28 May - 16:01:17 10° NNW 16:11:00 41° NE 16:27:34 10° ESE daylight
28 May - 18:20:53 10° WNW 18:34:58 75° SW 18:58:02 10° SE visible
28 May - 20:46:35 10° W 21:03:44 35° SSW 21:24:02 10° SSE visible
28 May - 23:22:52 10° SW 23:37:17 19° S 23:49:51 10° SSE visible
29 May - 01:57:54 10° SSW 02:10:05 20° SSE 02:18:46 10° SE visible
29 May - 04:24:05 10° SW 04:36:38 44° SSE 04:43:38 10° E visible
29 May - 06:50:07 10° WSW 06:57:56 38° NW 07:02:53 10° NNE daylight
29 May - 14:08:46 10° NNE 14:09:54 10° NE 14:11:06 10° NE daylight
29 May - 16:21:44 10° NW 16:32:03 55° NE 16:50:34 10° ESE daylight
29 May - 18:42:22 10° WNW 18:56:49 61° SSW 19:19:34 10° SE visible
29 May - 21:10:05 10° WSW 21:26:47 29° SSW 21:45:27 10° SSE visible
29 May - 23:47:32 10° SW 00:01:14 18° S 00:12:45 10° SE visible
30 May - 02:19:26 10° SSW 02:32:53 24° SSE 02:41:47 10° ESE visible
30 May - 04:45:22 10° SW 04:58:12 62° SSE 05:05:02 10° ENE visible
30 May - 07:12:49 10° W 07:18:42 22° NW 07:22:55 10° N daylight
30 May - 14:25:51 10° N 14:31:15 17° NE 14:38:35 10° ENE daylight
30 May - 16:42:24 10° NW 16:53:11 72° NE 17:13:02 10° ESE daylight
30 May - 19:04:13 10° W 19:18:57 49° SSW 19:40:58 10° SE visible
30 May - 21:34:08 10° WSW 21:50:13 24° SSW 22:07:11 10° SSE visible
31 May - 00:11:16 10° SW 00:25:05 19° S 00:36:10 10° SE visible
31 May - 02:40:45 10° SW 02:55:21 31° SSE 03:04:20 10° E visible
31 May - 05:06:54 10° SW 05:19:29 89° SE 05:26:06 10° NE visible
31 May - 07:36:46 10° WNW 07:39:33 13° NW 07:41:57 10° NNW daylight
31 May - 14:45:23 10° N 14:52:19 26° NE 15:03:08 10° E daylight
31 May - 17:03:18 10° NW 17:14:28 89° SW 17:35:07 10° SE daylight
31 May - 19:26:29 10° W 19:41:22 40° SSW 20:02:21 10° SE visible
31 May - 21:58:37 10° SW 22:13:59 21° SSW 22:29:22 10° SSE visible
01 Jun - 00:34:04 10° SSW 00:48:41 21° S 00:59:46 10° SE visible
01 Jun - 03:02:01 10° SW 03:17:32 40° SSE 03:26:26 10° E visible
01 Jun - 05:28:47 10° WSW 05:40:30 63° NW 05:46:52 10° NE visible
01 Jun - 15:05:26 10° NNW 15:13:15 37° NE 15:26:43 10° ESE daylight
01 Jun - 17:24:27 10° WNW 17:36:00 71° SW 17:56:52 10° SE daylight
01 Jun - 19:49:16 10° W 20:04:07 32° SSW 20:23:48 10° SE visible
01 Jun - 22:23:07 10° SW 22:38:01 20° S 22:52:10 10° SE visible
02 Jun - 00:56:11 10° SSW 01:11:56 24° SSE 01:23:08 10° ESE visible
02 Jun - 03:23:21 10° SW 03:39:26 53° SSE 03:48:06 10° ENE visible
02 Jun - 05:51:05 10° WSW 06:01:21 41° NW 06:07:20 10° NNE daylight
02 Jun - 15:25:48 10° NW 15:34:09 53° NE 15:49:36 10° ESE daylight
02 Jun - 17:45:54 10° WNW 17:57:49 56° SSW 18:18:25 10° SE visible
02 Jun - 20:12:34 10° WSW 20:27:13 27° SSW 20:45:28 10° SSE visible
02 Jun - 22:47:10 10° SW 23:02:09 20° S 23:15:38 10° SE visible
03 Jun - 01:17:50 10° SSW 01:34:50 30° SSE 01:46:06 10° ESE visible
03 Jun - 03:44:50 10° SW 04:01:03 71° SE 04:09:27 10° ENE visible
03 Jun - 06:13:59 10° W 06:22:07 26° NW 06:27:26 10° NNE daylight
03 Jun - 13:30:55 10° NNE 13:34:16 13° NE 13:38:22 10° ENE daylight
03 Jun - 15:46:25 10° NW 15:55:09 73° NE 16:11:58 10° ESE daylight
03 Jun - 18:07:43 10° W 18:19:55 45° SSW 18:39:51 10° SE visible
03 Jun - 20:36:21 10° WSW 20:50:43 23° SSW 21:07:31 10° SSE visible
03 Jun - 23:10:27 10° SW 23:26:08 21° S 23:39:29 10° SE visible
04 Jun - 01:39:18 10° SW 01:57:23 37° SSE 02:08:36 10° E visible
04 Jun - 04:06:34 10° SW 04:22:23 86° NW 04:30:29 10° NE visible
04 Jun - 06:37:50 10° WNW 06:42:58 16° NW 06:46:54 10° N daylight
04 Jun - 13:49:54 10° N 13:55:14 22° NE 14:03:05 10° E daylight
04 Jun - 16:07:18 10° NW 16:16:22 85° SW 16:33:57 10° SE daylight
04 Jun - 18:29:57 10° W 18:42:19 36° SSW 19:01:17 10° SE visible
04 Jun - 21:00:25 10° SW 21:14:34 21° S 21:30:10 10° SE visible
